Location: Unspecified
(0.0000°N, 0.0000°E)
Time: 10:49:08
(UTC+00:00)

Tiangong - Visible Passes

Search period start: 15 April 2026 00:00
Search period end: 25 April 2026 00:00
Orbit: 377 x 385 km, 41.5° (Epoch: 15 April)

Date Brightness Start Highest point End Pass type
(mag) Time Alt. Az. Time Alt. Az. Time Alt. Az.
17 Apr 0.8 19:39:38 10° NNW 19:39:54 12° NNW 19:39:54 12° NNW visible
18 Apr 0.2 18:40:20 10° NNE 18:41:23 11° NE 18:42:21 10° ENE visible
19 Apr -2.3 19:13:52 10° NW 19:16:58 85° NE 19:16:59 84° NE visible
20 Apr 1.1 19:51:04 10° WSW 19:51:37 11° WSW 19:51:37 11° WSW visible
21 Apr -0.6 18:48:33 10° WNW 18:51:24 32° SW 18:54:03 11° SSE visible
23 Apr -1.0 05:16:46 10° SSW 05:19:44 40° SE 05:22:42 10° ENE visible
23 Apr 0.7 18:24:01 10° WSW 18:25:44 14° SW 18:27:27 10° S visible
24 Apr 0.5 04:18:37 15° SE 04:18:37 15° SE 04:20:27 10° E visible
